[[{"header":{"parameterUnit":"m.s-1","parameterCategory":1,"la1":30.2991,"la2":30.254,"lo1":-89.0895,"lo2":-89.0444,"dy":0.0017,"dx":0.0017,"nx":28,"ny":28,"refTime":"2024-05-03T21:00:00:Z","depth":0,"parameterNumber":2,"parameterNumberName":"U-component_of_WINDS"},"data":[0,0,0,0,0,0,0,0,0,0,0,0,0,0,0,0,0,0,0,0,0,0,0,0,0,0,0,0,0,0,0,0,0,0,0,0,0,0,0,0,0,0,0,0,0,0,0,0,0,0,0,0,0,0,0,0,0,0,-0.7702,-0.7702,0,-0.7707,-0.7707,-0.7707,-0.7701,-0.7701,-0.77,-0.77,-0.7705,-0.7705,-0.7705,0,0,0,0,0,0,0,0,0,0,0,0,0,-0.7689,-0.7689,-0.7702,-0.7702,-0.7702,-0.7707,-0.7707,-0.7707,-0.7701,-0.7701,-0.77,-0.77,-0.7705,-0.7705,-0.7705,0,0,0,0,0,0,0,0,0,0,0,0,0,-0.7694,-0.7689,-0.7702,-0.77,-0.77,-0.7707,-0.7707,-0.7707,-0.7701,-0.7701,-0.77,-0.77,-0.7704,-0.7705,-0.7705,-0.7715,0,0,-0.7707,-0.7707,0,0,0,0,0,0,0,0,-0.7694,-0.7695,-0.77,-0.77,-0.77,-0.7703,-0.7704,-0.7709,-0.7701,-0.77,-0.77,-0.77,-0.7704,-0.7705,-0.7706,-0.7715,-0.7715,-0.7707,-0.7707,-0.7707,-0.7708,0,0,0,0,0,0,0,-0.7694,-0.7695,-0.7704,-0.77,-0.77,-0.7699,-0.7699,-0.7705,-0.7704,-0.77,-0.77,-0.7701,-0.7704,-0.7706,-0.7706,-0.7715,-0.7707,-0.7707,-0.7708,-0.7708,-0.7732,-0.7732,0,0,0,0,0,0,-0.7694,-0.7694,-0.7704,-0.7704,-0.7696,-0.7699,-0.77,-0.7702,-0.7704,-0.7704,-0.7701,-0.77,-0.7705,-0.7706,-0.7707,-0.7718,-0.7707,-0.7708,-0.7708,-0.7732,-0.7732,-0.7733,0,0,0,0,0,0,-0.7693,-0.7694,-0.7704,-0.7699,-0.77,-0.77,-0.7703,-0.7702,-0.7704,-0.7704,-0.7704,-0.7703,-0.7705,-0.7706,-0.7713,-0.7718,-0.7708,-0.7709,-0.7731,-0.7732,-0.7732,-0.774,0,0,0,0,0,0,-0.7693,-0.7694,-0.7698,-0.7699,-0.77,-0.771,-0.7703,-0.7703,-0.7705,-0.7704,-0.7706,-0.7706,-0.7705,-0.7712,-0.7713,-0.7718,-0.7709,-0.7731,-0.7732,-0.7732,-0.7739,-0.7741,-0.7742,0,0,0,0,0,-0.7692,-0.77,-0.7698,-0.7699,-0.7705,-0.771,-0.7711,-0.7709,-0.7705,-0.7709,-0.7709,-0.7706,-0.7717,-0.7713,-0.7714,-0.7719,-0.7731,-0.7731,-0.7732,-0.7739,-0.774,-0.7742,0,0,0,0,0,0,-0.7699,-0.77,-0.7698,-0.7706,-0.7708,-0.7709,-0.7713,-0.7711,-0.7714,-0.7713,-0.7711,-0.7712,-0.7719,-0.772,-0.7715,-0.7729,-0.7723,-0.7724,-0.7728,-0.7729,-0.7731,-0.773,-0.7709,0,0,0,0,0,-0.7701,-0.7706,-0.7706,-0.7713,-0.7714,-0.7714,-0.7716,-0.7715,-0.7717,-0.7717,-0.7718,-0.772,-0.7724,-0.7727,-0.7731,-0.774,-0.774,-0.7744,-0.7745,-0.7746,-0.7747,-0.7752,-0.7754,-0.7735,-0.7735,-0.7735,0,0,-0.7706,-0.7707,-0.771,-0.7715,-0.7716,-0.772,-0.7715,-0.7719,-0.7723,-0.7718,-0.7725,-0.7726,-0.7728,-0.7736,-0.7739,-0.7737,-0.7752,-0.7747,-0.7748,-0.7748,-0.7753,-0.7755,-0.7756,-0.7736,-0.7736,-0.7736,0,0,-0.7718,-0.7719,-0.7725,-0.7726,-0.7729,-0.7728,-0.773,-0.7731,-0.7731,-0.7738,-0.7735,-0.7739,-0.7746,-0.7747,-0.7749,-0.7761,-0.7759,-0.7763,-0.777,-0.7774,-0.7776,-0.7777,-0.7781,-0.7783,-0.7764,-0.7764,-0.7764,0,-0.7723,-0.773,-0.7728,-0.7733,-0.7735,-0.7732,-0.7738,-0.7739,-0.7743,-0.7744,-0.7741,-0.775,-0.7751,-0.776,-0.7763,-0.7764,-0.7766,-0.7762,-0.7776,-0.7777,-0.7778,-0.7782,-0.7784,-0.7764,-0.7764,-0.7764,-0.7764,0,-0.7737,-0.7742,-0.7746,-0.7749,-0.7752,-0.7758,-0.7757,-0.776,-0.7758,-0.7758,-0.7765,-0.7767,-0.7771,-0.7773,-0.7771,-0.7781,-0.7779,-0.7776,-0.777,-0.778,-0.7784,-0.7786,-0.7765,-0.7765,-0.7765,-0.7764,0,0,-0.7752,-0.7754,-0.7756,-0.7758,-0.776,-0.7764,-0.7769,-0.7773,-0.7776,-0.7778,-0.7783,-0.7789,-0.7786,-0.7788,-0.7787,-0.7791,-0.7801,-0.7787,-0.7787,-0.779,-0.7811,-0.7813,-0.7815,-0.7799,-0.7799,-0.7799,-0.7811,0,-0.7763,-0.7773,-0.7771,-0.778,-0.7785,-0.7781,-0.7786,-0.7788,-0.7789,-0.7792,-0.7793,-0.7797,-0.7793,-0.7794,-0.7798,-0.7799,-0.7805,-0.7798,-0.7803,-0.7803,-0.7802,-0.7817,-0.782,-0.783,-0.7812,-0.7813,-0.7813,0,-0.7777,-0.778,-0.779,-0.7792,-0.7793,-0.7798,-0.7801,-0.7805,-0.7807,-0.7807,-0.781,-0.7808,-0.7813,-0.7808,-0.7816,-0.7811,-0.7813,-0.7814,-0.7814,-0.7815,-0.7809,-0.7818,-0.7834,-0.7835,-0.7815,-0.7815,-0.7815,0,-0.7787,-0.7794,-0.78,-0.7802,-0.7804,-0.7807,-0.7808,-0.781,-0.7813,-0.7816,-0.7817,-0.7821,-0.7823,-0.7826,-0.7826,-0.7822,-0.7834,-0.7828,-0.7834,-0.7834,-0.7836,-0.7836,-0.7853,-0.7838,-0.7838,-0.7838,-0.7838,0,-0.78,-0.7805,-0.7805,-0.7809,-0.7815,-0.7814,-0.7821,-0.7821,-0.7823,-0.7827,-0.7825,-0.7829,-0.7828,-0.7832,-0.7831,-0.7838,-0.7839,-0.7839,-0.7839,-0.7839,-0.7839,-0.784,-0.784,-0.7838,-0.7838,-0.7838,-0.7838,0,-0.7812,-0.7811,-0.7818,-0.782,-0.782,-0.7825,-0.7827,-0.7831,-0.7831,-0.7836,-0.7837,-0.7838,-0.7842,-0.7842,-0.7847,-0.7847,-0.7855,-0.7854,-0.7854,-0.7854,-0.7859,-0.7859,-0.7877,-0.7879,-0.7863,-0.7864,-0.7864,0,-0.7819,-0.7824,-0.7826,-0.7829,-0.783,-0.7834,-0.7837,-0.7836,-0.7838,-0.7842,-0.7845,-0.7849,-0.7853,-0.786,-0.7861,-0.7865,-0.7864,-0.787,-0.7865,-0.7865,-0.7864,-0.7864,-0.7864,-0.7871,-0.7871,-0.7872,-0.7872,0,-0.7833,-0.7833,-0.7837,-0.784,-0.7843,-0.7846,-0.7849,-0.7851,-0.785,-0.7854,-0.7858,-0.7861,-0.7866,-0.7871,-0.7875,-0.7876,-0.7874,-0.7874,-0.7875,-0.7875,-0.7875,-0.7875,-0.7857,-0.7873,-0.7873,-0.7873,-0.7873,-0.7873,-0.7843,-0.7847,-0.7849,-0.7853,-0.7855,-0.7858,-0.7862,-0.7862,-0.7866,-0.787,-0.787,-0.7875,-0.7877,-0.7882,-0.7884,-0.7888,-0.7886,-0.7888,-0.7888,-0.7889,-0.789,-0.7875,-0.7889,-0.7889,-0.7889,-0.7889,-0.7889,0,-0.7857,-0.7858,-0.7862,-0.7866,-0.7869,-0.7867,-0.787,-0.7873,-0.7877,-0.788,-0.7883,-0.7889,-0.7893,-0.7894,-0.7898,-0.7901,-0.7901,-0.7903,-0.7902,-0.7902,-0.7891,-0.789,-0.7903,-0.7903,-0.7903,-0.7903,-0.7903,-0.7903,-0.7864,-0.7871,-0.7871,-0.7878,-0.7879,-0.7884,-0.7886,-0.7889,-0.7891,-0.7897,-0.79,-0.7901,-0.7903,-0.7907,-0.7911,-0.7911,-0.7913,-0.7915,-0.7915,-0.7905,-0.7903,-0.7902,-0.79,-0.7916,-0.7916,-0.7926,-0.7926,-0.7926]},{"header":{"parameterUnit":"m.s-1","parameterCategory":1,"la1":30.2991,"la2":30.254,"lo1":-89.0895,"lo2":-89.0444,"dy":0.0017,"dx":0.0017,"nx":28,"ny":28,"refTime":"2024-05-03T21:00:00:Z","depth":0,"parameterNumber":3,"parameterNumberName":"V-component_of_WINDS"},"data":[0,0,0,0,0,0,0,0,0,0,0,0,0,0,0,0,0,0,0,0,0,0,0,0,0,0,0,0,0,0,0,0,0,0,0,0,0,0,0,0,0,0,0,0,0,0,0,0,0,0,0,0,0,0,0,0,0,0,1.4691,1.4691,0,1.4727,1.4728,1.4728,1.4721,1.472,1.472,1.4719,1.4755,1.4756,1.4758,0,0,0,0,0,0,0,0,0,0,0,0,0,1.4613,1.4614,1.469,1.4691,1.4691,1.4727,1.4728,1.4728,1.4721,1.472,1.4719,1.4719,1.4754,1.4756,1.4758,0,0,0,0,0,0,0,0,0,0,0,0,0,1.4648,1.4615,1.469,1.4692,1.4693,1.4727,1.4728,1.4728,1.4721,1.472,1.4719,1.4718,1.4753,1.4756,1.4758,1.4792,0,0,1.4765,1.4766,0,0,0,0,0,0,0,0,1.4646,1.465,1.4692,1.4692,1.4693,1.4719,1.4713,1.475,1.4721,1.471,1.4719,1.4718,1.4743,1.4746,1.4755,1.4794,1.4795,1.4765,1.4767,1.4768,1.4768,0,0,0,0,0,0,0,1.4643,1.4649,1.4705,1.4692,1.4693,1.4691,1.4695,1.472,1.4732,1.4711,1.4711,1.4715,1.4743,1.4753,1.4756,1.4796,1.4765,1.4767,1.4769,1.477,1.4864,1.4865,0,0,0,0,0,0,1.464,1.4647,1.4704,1.4706,1.4666,1.4693,1.4697,1.4711,1.4732,1.4734,1.4716,1.4715,1.475,1.4753,1.4757,1.4799,1.4768,1.477,1.4771,1.4863,1.4864,1.4866,0,0,0,0,0,0,1.4639,1.4646,1.4702,1.4676,1.4683,1.4695,1.4711,1.4712,1.4722,1.4735,1.4737,1.4724,1.4749,1.4754,1.4784,1.48,1.4771,1.4773,1.4862,1.4863,1.4865,1.4882,0,0,0,0,0,0,1.4637,1.4645,1.4659,1.4677,1.4685,1.4729,1.4712,1.4714,1.4726,1.4725,1.4743,1.4745,1.4749,1.478,1.4786,1.4802,1.4775,1.486,1.4863,1.4864,1.488,1.4884,1.4887,0,0,0,0,0,1.4634,1.4661,1.4659,1.4666,1.4702,1.473,1.4734,1.4738,1.4728,1.4741,1.475,1.4745,1.4797,1.4783,1.479,1.4807,1.4859,1.4862,1.4864,1.4878,1.4883,1.4887,0,0,0,0,0,0,1.4644,1.4664,1.4662,1.4696,1.4711,1.4728,1.4745,1.4743,1.4761,1.4759,1.4762,1.4767,1.4797,1.4805,1.4789,1.4841,1.4827,1.4831,1.4835,1.484,1.4843,1.4841,1.4777,0,0,0,0,0,1.465,1.4671,1.4687,1.4716,1.4724,1.4733,1.4745,1.4747,1.4763,1.4769,1.478,1.4795,1.4815,1.4828,1.4847,1.4881,1.4885,1.4896,1.49,1.4903,1.4906,1.4925,1.493,1.4874,1.4874,1.4874,0,0,1.4663,1.4677,1.469,1.4718,1.473,1.4752,1.4739,1.4762,1.4778,1.4772,1.4801,1.481,1.4827,1.4859,1.4873,1.4866,1.4922,1.4906,1.4908,1.491,1.4928,1.4933,1.4938,1.4876,1.4875,1.4875,0,0,1.4698,1.471,1.4735,1.4748,1.4767,1.4773,1.4779,1.4797,1.4802,1.4832,1.4828,1.4847,1.4881,1.4893,1.4904,1.4944,1.494,1.495,1.4969,1.4987,1.4992,1.4995,1.501,1.5015,1.4953,1.4953,1.4953,0,1.4711,1.4744,1.4749,1.4772,1.4785,1.4782,1.4807,1.4819,1.4843,1.4851,1.4844,1.4887,1.4898,1.4933,1.4943,1.4952,1.4958,1.4948,1.4991,1.4995,1.4998,1.5012,1.5017,1.4954,1.4954,1.4954,1.4954,0,1.476,1.4783,1.4801,1.4825,1.4839,1.4864,1.4871,1.4886,1.4886,1.4893,1.4923,1.4936,1.4958,1.4967,1.4967,1.5002,1.4997,1.499,1.4975,1.5005,1.5018,1.5023,1.4956,1.4955,1.4955,1.4955,0,0,1.4801,1.4828,1.4834,1.4845,1.4866,1.4883,1.4908,1.493,1.4942,1.4958,1.4978,1.5008,1.5001,1.5014,1.5015,1.5032,1.5062,1.5023,1.5023,1.5029,1.5101,1.5107,1.5113,1.506,1.5061,1.5062,1.51,0,1.4838,1.4881,1.4886,1.4925,1.4946,1.4944,1.4965,1.4979,1.4987,1.5005,1.5013,1.5033,1.5024,1.5031,1.5047,1.5055,1.5077,1.5053,1.5078,1.5079,1.5074,1.5119,1.5125,1.516,1.5105,1.5106,1.5107,0,1.4886,1.4905,1.4946,1.4964,1.4973,1.4992,1.5013,1.503,1.5047,1.5051,1.5065,1.5065,1.5089,1.5074,1.5108,1.5091,1.5102,1.5108,1.511,1.5112,1.5095,1.5123,1.5172,1.5177,1.5114,1.5114,1.5113,0,1.4912,1.4948,1.4977,1.4986,1.5008,1.5021,1.5031,1.5047,1.506,1.5078,1.5086,1.5106,1.5117,1.5133,1.5138,1.5127,1.5172,1.5157,1.5176,1.5175,1.5185,1.5184,1.5236,1.5192,1.5192,1.5192,1.5192,0,1.4953,1.4978,1.4989,1.5007,1.5035,1.504,1.5067,1.5076,1.509,1.511,1.5109,1.5126,1.5132,1.5151,1.5156,1.5183,1.5188,1.5192,1.5192,1.5192,1.5191,1.5199,1.5196,1.5193,1.5193,1.5193,1.5193,0,1.4986,1.4995,1.5027,1.5045,1.505,1.507,1.5085,1.5102,1.511,1.5134,1.514,1.5151,1.5173,1.518,1.5207,1.5209,1.5241,1.524,1.5236,1.5236,1.5254,1.5253,1.5313,1.5321,1.5272,1.5272,1.5273,0,1.5011,1.5031,1.5051,1.5065,1.5075,1.5096,1.511,1.5115,1.5129,1.515,1.5165,1.5187,1.5205,1.524,1.525,1.5271,1.527,1.5289,1.5273,1.5271,1.527,1.5269,1.5271,1.5292,1.5293,1.5293,1.5294,0,1.5055,1.5058,1.5078,1.51,1.5116,1.5133,1.515,1.516,1.5168,1.5184,1.5207,1.5221,1.5249,1.5271,1.5292,1.5301,1.5299,1.5299,1.5304,1.5304,1.5301,1.5303,1.5245,1.5298,1.5297,1.5297,1.5297,1.5297,1.5085,1.5102,1.512,1.5142,1.5155,1.517,1.5188,1.5197,1.5217,1.524,1.5242,1.5267,1.5283,1.5311,1.5321,1.5341,1.5335,1.5343,1.5345,1.5347,1.5348,1.5298,1.5345,1.5344,1.5344,1.5344,1.5344,0,1.5129,1.514,1.516,1.5184,1.5201,1.5198,1.5216,1.5231,1.5253,1.5268,1.5287,1.5313,1.5334,1.5346,1.5368,1.5381,1.538,1.5386,1.5385,1.5387,1.5352,1.5345,1.5386,1.5386,1.5386,1.5386,1.5386,1.5386,1.5153,1.5182,1.5188,1.5223,1.5234,1.5259,1.527,1.5284,1.5296,1.5326,1.5344,1.5352,1.5366,1.5389,1.5408,1.5411,1.5419,1.5425,1.5428,1.5394,1.539,1.5386,1.5379,1.5427,1.5427,1.5461,1.5462,1.5462]}]]